Time,TemperatureF,DewpointF,PressureIn,WindDirection,WindDirectionDegrees,WindSpeedMPH,WindSpeedGustMPH,Humidity,HourlyPrecipIn,Conditions,Clouds,dailyrainin,SoftwareType,DateUTC
2013-01-16 00:02:00,34.0,18.0,-100.00,ENE,66,4.0,11.0,52,-99.99,,,-99.99,,2013-01-16 08:02:00,
2013-01-16 00:12:00,34.0,18.0,-100.00,NNE,32,7.0,18.0,52,-99.99,,,-99.99,,2013-01-16 08:12:00,
2013-01-16 00:22:00,34.0,17.0,-100.00,NNE,31,8.0,18.0,50,-99.99,,,-99.99,,2013-01-16 08:22:00,
2013-01-16 00:32:00,35.0,16.0,-100.00,NE,47,5.0,11.0,46,-99.99,,,-99.99,,2013-01-16 08:32:00,
2013-01-16 00:42:00,35.0,17.0,-100.00,NE,41,6.0,17.0,47,-99.99,,,-99.99,,2013-01-16 08:42:00,
2013-01-16 00:52:00,34.0,17.0,-100.00,NE,44,4.0,14.0,48,-99.99,,,-99.99,,2013-01-16 08:52:00,
2013-01-16 01:02:00,35.0,16.0,-100.00,NE,44,5.0,14.0,45,-99.99,,,-99.99,,2013-01-16 09:02:00,
2013-01-16 01:11:00,35.0,16.0,-100.00,NE,38,4.0,12.0,44,-99.99,,,-99.99,,2013-01-16 09:11:00,
2013-01-16 01:22:00,35.0,15.0,-100.00,NE,37,4.0,9.0,44,-99.99,,,-99.99,,2013-01-16 09:22:00,
2013-01-16 01:32:00,34.0,16.0,-100.00,NNE,18,5.0,10.0,46,-99.99,,,-99.99,,2013-01-16 09:32:00,
2013-01-16 01:42:00,34.0,16.0,-100.00,NNE,31,5.0,12.0,48,-99.99,,,-99.99,,2013-01-16 09:42:00,
2013-01-16 01:52:00,34.0,16.0,-100.00,NNE,21,3.0,10.0,47,-99.99,,,-99.99,,2013-01-16 09:52:00,
2013-01-16 02:02:00,32.0,15.0,-100.00,NE,56,3.0,10.0,50,-99.99,,,-99.99,,2013-01-16 10:02:00,
2013-01-16 02:12:00,33.0,16.0,-100.00,NE,34,2.0,10.0,49,-99.99,,,-99.99,,2013-01-16 10:12:00,
2013-01-16 02:22:00,32.0,16.0,-100.00,NNE,30,3.0,7.0,52,-99.99,,,-99.99,,2013-01-16 10:22:00,
2013-01-16 02:32:00,30.0,17.0,-100.00,ENE,58,2.0,5.0,59,-99.99,,,-99.99,,2013-01-16 10:32:00,
2013-01-16 02:42:00,29.0,16.0,-100.00,ENE,58,2.0,5.0,59,-99.99,,,-99.99,,2013-01-16 10:42:00,
2013-01-16 02:52:00,29.0,17.0,-100.00,ESE,102,2.0,5.0,60,-99.99,,,-99.99,,2013-01-16 10:52:00,
2013-01-16 03:02:00,30.0,16.0,-100.00,ENE,61,2.0,6.0,56,-99.99,,,-99.99,,2013-01-16 11:02:00,
2013-01-16 03:11:00,29.0,17.0,-100.00,East,82,2.0,5.0,61,-99.99,,,-99.99,,2013-01-16 11:11:00,
2013-01-16 03:22:00,29.0,17.0,-100.00,ENE,71,2.0,6.0,61,-99.99,,,-99.99,,2013-01-16 11:22:00,
2013-01-16 03:32:00,29.0,18.0,-100.00,ENE,62,3.0,6.0,61,-99.99,,,-99.99,,2013-01-16 11:32:00,
2013-01-16 03:42:00,28.0,17.0,-100.00,NE,55,3.0,4.0,64,-99.99,,,-99.99,,2013-01-16 11:42:00,
2013-01-16 03:52:00,29.0,17.0,-100.00,NE,54,3.0,6.0,60,-99.99,,,-99.99,,2013-01-16 11:52:00,
2013-01-16 04:02:00,29.0,16.0,-100.00,NE,54,3.0,6.0,59,-99.99,,,-99.99,,2013-01-16 12:02:00,
2013-01-16 04:12:00,33.0,16.0,-100.00,NE,44,4.0,15.0,49,-99.99,,,-99.99,,2013-01-16 12:12:00,
2013-01-16 04:22:00,34.0,15.0,-100.00,NNE,32,4.0,11.0,46,-99.99,,,-99.99,,2013-01-16 12:22:00,
2013-01-16 04:33:00,34.0,16.0,-100.00,NE,35,5.0,14.0,46,-99.99,,,-99.99,,2013-01-16 12:33:00,
2013-01-16 04:42:00,34.0,15.0,-100.00,North,7,5.0,16.0,46,-99.99,,,-99.99,,2013-01-16 12:42:00,
2013-01-16 04:52:00,34.0,15.0,-100.00,NNE,25,5.0,14.0,46,-99.99,,,-99.99,,2013-01-16 12:52:00,
2013-01-16 05:02:00,31.0,15.0,-100.00,NE,48,5.0,13.0,52,-99.99,,,-99.99,,2013-01-16 13:02:00,
2013-01-16 05:12:00,31.0,16.0,-100.00,ESE,119,3.0,9.0,54,-99.99,,,-99.99,,2013-01-16 13:12:00,
2013-01-16 05:22:00,31.0,17.0,-100.00,South,175,2.0,4.0,55,-99.99,,,-99.99,,2013-01-16 13:22:00,
2013-01-16 05:32:00,30.0,16.0,-100.00,ESE,103,3.0,7.0,57,-99.99,,,-99.99,,2013-01-16 13:32:00,
2013-01-16 05:42:00,30.0,16.0,-100.00,ESE,107,2.0,7.0,56,-99.99,,,-99.99,,2013-01-16 13:42:00,
2013-01-16 05:52:00,29.0,17.0,-100.00,East,85,2.0,6.0,58,-99.99,,,-99.99,,2013-01-16 13:52:00,
2013-01-16 06:02:00,31.0,15.0,-100.00,ENE,76,2.0,7.0,51,-99.99,,,-99.99,,2013-01-16 14:02:00,
2013-01-16 06:12:00,29.0,16.0,-100.00,ENE,73,2.0,6.0,57,-99.99,,,-99.99,,2013-01-16 14:12:00,
2013-01-16 06:22:00,28.0,16.0,-100.00,East,79,2.0,6.0,61,-99.99,,,-99.99,,2013-01-16 14:22:00,
2013-01-16 06:32:00,29.0,16.0,-100.00,NE,45,2.0,7.0,58,-99.99,,,-99.99,,2013-01-16 14:32:00,
2013-01-16 06:42:00,28.0,16.0,-100.00,ENE,73,2.0,5.0,61,-99.99,,,-99.99,,2013-01-16 14:42:00,
2013-01-16 06:53:00,30.0,16.0,-100.00,ENE,78,3.0,6.0,56,-99.99,,,-99.99,,2013-01-16 14:53:00,
2013-01-16 07:02:00,27.0,16.0,-100.00,East,96,2.0,3.0,63,-99.99,,,-99.99,,2013-01-16 15:02:00,
2013-01-16 07:12:00,27.0,16.0,-100.00,ESE,119,1.0,3.0,63,-99.99,,,-99.99,,2013-01-16 15:12:00,
2013-01-16 07:22:00,27.0,16.0,-100.00,ENE,68,3.0,4.0,63,-99.99,,,-99.99,,2013-01-16 15:22:00,
2013-01-16 07:32:00,27.0,16.0,-100.00,ENE,59,3.0,4.0,62,-99.99,,,-99.99,,2013-01-16 15:32:00,
2013-01-16 07:42:00,28.0,16.0,-100.00,NE,45,3.0,5.0,59,-99.99,,,-99.99,,2013-01-16 15:42:00,
2013-01-16 07:52:00,27.0,16.0,-100.00,ENE,76,2.0,4.0,63,-99.99,,,-99.99,,2013-01-16 15:52:00,
2013-01-16 08:03:00,26.0,16.0,-100.00,East,79,2.0,4.0,64,-99.99,,,-99.99,,2013-01-16 16:03:00,
2013-01-16 08:12:00,27.0,16.0,-100.00,ENE,65,2.0,5.0,62,-99.99,,,-99.99,,2013-01-16 16:12:00,
2013-01-16 08:22:00,27.0,15.0,-100.00,ENE,64,2.0,4.0,61,-99.99,,,-99.99,,2013-01-16 16:22:00,
2013-01-16 08:32:00,26.0,15.0,-100.00,ENE,68,2.0,4.0,61,-99.99,,,-99.99,,2013-01-16 16:32:00,
2013-01-16 08:42:00,27.0,15.0,-100.00,ENE,68,3.0,5.0,60,-99.99,,,-99.99,,2013-01-16 16:42:00,
2013-01-16 08:52:00,27.0,15.0,-100.00,East,79,2.0,4.0,60,-99.99,,,-99.99,,2013-01-16 16:52:00,
2013-01-16 09:02:00,27.0,15.0,-100.00,East,86,2.0,6.0,59,-99.99,,,-99.99,,2013-01-16 17:02:00,
2013-01-16 09:12:00,28.0,15.0,-100.00,East,83,2.0,5.0,58,-99.99,,,-99.99,,2013-01-16 17:12:00,
2013-01-16 09:22:00,29.0,15.0,-100.00,ENE,73,3.0,5.0,56,-99.99,,,-99.99,,2013-01-16 17:22:00,
2013-01-16 09:33:00,30.0,14.0,-100.00,East,99,2.0,6.0,50,-99.99,,,-99.99,,2013-01-16 17:33:00,
2013-01-16 09:43:00,32.0,15.0,-100.00,East,92,2.0,6.0,49,-99.99,,,-99.99,,2013-01-16 17:43:00,
2013-01-16 09:53:00,33.0,15.0,-100.00,East,100,2.0,5.0,46,-99.99,,,-99.99,,2013-01-16 17:53:00,
2013-01-16 10:02:00,34.0,14.0,-100.00,ESE,112,2.0,5.0,43,-99.99,,,-99.99,,2013-01-16 18:02:00,
2013-01-16 10:12:00,36.0,13.0,-100.00,SE,124,2.0,4.0,38,-99.99,,,-99.99,,2013-01-16 18:12:00,
2013-01-16 10:22:00,37.0,13.0,-100.00,ESE,120,2.0,4.0,36,-99.99,,,-99.99,,2013-01-16 18:22:00,
2013-01-16 10:33:00,39.0,11.0,-100.00,ESE,103,2.0,6.0,32,-99.99,,,-99.99,,2013-01-16 18:33:00,
2013-01-16 10:42:00,39.0,12.0,-100.00,ENE,66,5.0,18.0,32,-99.99,,,-99.99,,2013-01-16 18:42:00,
2013-01-16 10:52:00,40.0,11.0,-100.00,NNE,17,4.0,13.0,31,-99.99,,,-99.99,,2013-01-16 18:52:00,
2013-01-16 11:02:00,40.0,12.0,-100.00,NNE,18,6.0,16.0,31,-99.99,,,-99.99,,2013-01-16 19:02:00,
2013-01-16 11:12:00,40.0,12.0,-100.00,NE,34,6.0,13.0,31,-99.99,,,-99.99,,2013-01-16 19:12:00,
2013-01-16 11:22:00,40.0,10.0,-100.00,NNE,30,5.0,17.0,29,-99.99,,,-99.99,,2013-01-16 19:22:00,
2013-01-16 11:33:00,40.0,11.0,-100.00,NNE,23,7.0,17.0,30,-99.99,,,-99.99,,2013-01-16 19:33:00,
2013-01-16 11:42:00,41.0,10.0,-100.00,NNE,24,5.0,17.0,28,-99.99,,,-99.99,,2013-01-16 19:42:00,
2013-01-16 11:52:00,42.0,10.0,-100.00,ENE,66,4.0,12.0,27,-99.99,,,-99.99,,2013-01-16 19:52:00,
2013-01-16 12:02:00,42.0,10.0,-100.00,East,92,5.0,15.0,26,-99.99,,,-99.99,,2013-01-16 20:02:00,
2013-01-16 12:12:00,42.0,10.0,-100.00,NNE,17,6.0,15.0,26,-99.99,,,-99.99,,2013-01-16 20:12:00,
2013-01-16 12:23:00,42.0,10.0,-100.00,NNE,17,7.0,15.0,26,-99.99,,,-99.99,,2013-01-16 20:23:00,
2013-01-16 12:33:00,41.0,10.0,-100.00,NNE,13,9.0,19.0,27,-99.99,,,-99.99,,2013-01-16 20:33:00,
2013-01-16 12:42:00,42.0,10.0,-100.00,NNE,13,9.0,20.0,26,-99.99,,,-99.99,,2013-01-16 20:42:00,
2013-01-16 12:53:00,42.0,10.0,-100.00,NNE,20,7.0,21.0,27,-99.99,,,-99.99,,2013-01-16 20:53:00,
2013-01-16 13:02:00,42.0,9.0,-100.00,NNE,20,8.0,18.0,25,-99.99,,,-99.99,,2013-01-16 21:02:00,
2013-01-16 13:12:00,42.0,9.0,-100.00,NNE,24,7.0,16.0,25,-99.99,,,-99.99,,2013-01-16 21:12:00,
2013-01-16 13:22:00,42.0,10.0,-100.00,NNE,17,8.0,24.0,26,-99.99,,,-99.99,,2013-01-16 21:22:00,
2013-01-16 13:32:00,42.0,9.0,-100.00,NNE,18,8.0,18.0,25,-99.99,,,-99.99,,2013-01-16 21:32:00,
2013-01-16 13:42:00,42.0,9.0,-100.00,NNE,16,10.0,20.0,25,-99.99,,,-99.99,,2013-01-16 21:42:00,
2013-01-16 13:52:00,42.0,9.0,-100.00,NNE,14,9.0,22.0,25,-99.99,,,-99.99,,2013-01-16 21:52:00,
2013-01-16 14:02:00,42.0,10.0,-100.00,North,10,9.0,22.0,26,-99.99,,,-99.99,,2013-01-16 22:02:00,
2013-01-16 14:12:00,42.0,8.0,-100.00,NNE,13,9.0,23.0,24,-99.99,,,-99.99,,2013-01-16 22:12:00,
2013-01-16 14:22:00,42.0,7.0,-100.00,North,10,10.0,23.0,23,-99.99,,,-99.99,,2013-01-16 22:22:00,
2013-01-16 14:32:00,42.0,8.0,-100.00,NNE,13,9.0,25.0,24,-99.99,,,-99.99,,2013-01-16 22:32:00,
2013-01-16 14:43:00,42.0,8.0,-100.00,North,8,10.0,23.0,24,-99.99,,,-99.99,,2013-01-16 22:43:00,
2013-01-16 14:52:00,42.0,7.0,-100.00,North,4,9.0,20.0,23,-99.99,,,-99.99,,2013-01-16 22:52:00,
2013-01-16 15:02:00,42.0,8.0,-100.00,North,8,9.0,21.0,24,-99.99,,,-99.99,,2013-01-16 23:02:00,
2013-01-16 15:12:00,42.0,7.0,-100.00,NNE,14,9.0,20.0,23,-99.99,,,-99.99,,2013-01-16 23:12:00,
2013-01-16 15:22:00,41.0,8.0,-100.00,North,6,10.0,22.0,25,-99.99,,,-99.99,,2013-01-16 23:22:00,
2013-01-16 15:32:00,41.0,8.0,-100.00,NNE,18,10.0,23.0,25,-99.99,,,-99.99,,2013-01-16 23:32:00,
2013-01-16 15:42:00,41.0,8.0,-100.00,NNE,14,11.0,23.0,25,-99.99,,,-99.99,,2013-01-16 23:42:00,
2013-01-16 15:52:00,40.0,7.0,-100.00,North,10,10.0,23.0,25,-99.99,,,-99.99,,2013-01-16 23:52:00,
2013-01-16 16:02:00,40.0,8.0,-100.00,North,11,10.0,20.0,26,-99.99,,,-99.99,,2013-01-17 00:02:00,
2013-01-16 16:12:00,39.0,8.0,-100.00,North,11,10.0,22.0,27,-99.99,,,-99.99,,2013-01-17 00:12:00,
2013-01-16 16:22:00,39.0,6.0,-100.00,NNE,13,10.0,22.0,25,-99.99,,,-99.99,,2013-01-17 00:22:00,
2013-01-16 16:32:00,39.0,7.0,-100.00,North,7,10.0,24.0,26,-99.99,,,-99.99,,2013-01-17 00:32:00,
2013-01-16 16:42:00,39.0,6.0,-100.00,North,11,10.0,24.0,25,-99.99,,,-99.99,,2013-01-17 00:42:00,
2013-01-16 16:52:00,38.0,5.0,-100.00,NNE,14,10.0,24.0,24,-99.99,,,-99.99,,2013-01-17 00:52:00,
2013-01-16 17:02:00,38.0,5.0,-100.00,NNE,14,10.0,24.0,24,-99.99,,,-99.99,,2013-01-17 01:02:00,
2013-01-16 17:12:00,37.0,6.0,-100.00,North,10,8.0,20.0,27,-99.99,,,-99.99,,2013-01-17 01:12:00,
2013-01-16 17:22:00,37.0,8.0,-100.00,NNE,21,8.0,20.0,29,-99.99,,,-99.99,,2013-01-17 01:22:00,
2013-01-16 17:32:00,36.0,6.0,-100.00,NNE,28,6.0,16.0,28,-99.99,,,-99.99,,2013-01-17 01:32:00,
2013-01-16 17:42:00,36.0,6.0,-100.00,NNE,24,7.0,22.0,28,-99.99,,,-99.99,,2013-01-17 01:42:00,
2013-01-16 17:52:00,36.0,7.0,-100.00,NE,37,6.0,17.0,29,-99.99,,,-99.99,,2013-01-17 01:52:00,
2013-01-16 18:02:00,36.0,8.0,-100.00,NNE,30,7.0,22.0,30,-99.99,,,-99.99,,2013-01-17 02:02:00,
2013-01-16 18:12:00,36.0,7.0,-100.00,NE,37,6.0,17.0,30,-99.99,,,-99.99,,2013-01-17 02:12:00,
2013-01-16 18:22:00,36.0,8.0,-100.00,ENE,59,5.0,16.0,30,-99.99,,,-99.99,,2013-01-17 02:22:00,
2013-01-16 18:32:00,35.0,8.0,-100.00,NE,52,6.0,13.0,31,-99.99,,,-99.99,,2013-01-17 02:32:00,
2013-01-16 18:42:00,35.0,8.0,-100.00,NE,52,6.0,13.0,31,-99.99,,,-99.99,,2013-01-17 02:42:00,
2013-01-16 18:52:00,35.0,8.0,-100.00,NE,52,6.0,13.0,31,-99.99,,,-99.99,,2013-01-17 02:52:00,
2013-01-16 19:02:00,36.0,10.0,-100.00,NE,34,5.0,15.0,34,-99.99,,,-99.99,,2013-01-17 03:02:00,
2013-01-16 19:12:00,36.0,11.0,-100.00,NE,54,3.0,11.0,35,-99.99,,,-99.99,,2013-01-17 03:12:00,
2013-01-16 19:22:00,35.0,9.0,-100.00,NE,40,4.0,12.0,33,-99.99,,,-99.99,,2013-01-17 03:22:00,
2013-01-16 19:32:00,35.0,8.0,-100.00,NE,42,6.0,15.0,32,-99.99,,,-99.99,,2013-01-17 03:32:00,
2013-01-16 19:42:00,35.0,8.0,-100.00,NE,56,6.0,17.0,32,-99.99,,,-99.99,,2013-01-17 03:42:00,
2013-01-16 19:52:00,34.0,8.0,-100.00,NE,45,6.0,18.0,32,-99.99,,,-99.99,,2013-01-17 03:52:00,
2013-01-16 20:02:00,34.0,7.0,-100.00,NE,52,6.0,17.0,32,-99.99,,,-99.99,,2013-01-17 04:02:00,
2013-01-16 20:12:00,35.0,7.0,-100.00,ENE,62,6.0,19.0,31,-99.99,,,-99.99,,2013-01-17 04:12:00,
2013-01-16 20:22:00,35.0,7.0,-100.00,NE,55,7.0,19.0,31,-99.99,,,-99.99,,2013-01-17 04:22:00,
2013-01-16 20:32:00,35.0,7.0,-100.00,NE,55,7.0,19.0,31,-99.99,,,-99.99,,2013-01-17 04:32:00,
2013-01-16 21:04:00,35.0,7.0,-100.00,NE,49,7.0,21.0,31,-99.99,,,-99.99,,2013-01-17 05:04:00,
2013-01-16 21:12:00,34.0,8.0,-100.00,NE,49,7.0,17.0,32,-99.99,,,-99.99,,2013-01-17 05:12:00,
2013-01-16 21:22:00,34.0,7.0,-100.00,NE,44,7.0,17.0,32,-99.99,,,-99.99,,2013-01-17 05:22:00,
2013-01-16 21:32:00,34.0,7.0,-100.00,NE,44,7.0,17.0,32,-99.99,,,-99.99,,2013-01-17 05:32:00,
2013-01-16 21:42:00,34.0,8.0,-100.00,NE,41,7.0,15.0,33,-99.99,,,-99.99,,2013-01-17 05:42:00,
2013-01-16 21:52:00,34.0,8.0,-100.00,NE,38,6.0,16.0,33,-99.99,,,-99.99,,2013-01-17 05:52:00,
2013-01-16 22:02:00,34.0,9.0,-100.00,NE,52,7.0,18.0,34,-99.99,,,-99.99,,2013-01-17 06:02:00,
2013-01-16 22:11:00,33.0,8.0,-100.00,NE,52,6.0,15.0,34,-99.99,,,-99.99,,2013-01-17 06:11:00,
2013-01-16 22:22:00,33.0,8.0,-100.00,NE,45,5.0,12.0,34,-99.99,,,-99.99,,2013-01-17 06:22:00,
2013-01-16 22:32:00,33.0,8.0,-100.00,NE,45,5.0,13.0,34,-99.99,,,-99.99,,2013-01-17 06:32:00,
2013-01-16 22:42:00,33.0,8.0,-100.00,NE,42,6.0,15.0,34,-99.99,,,-99.99,,2013-01-17 06:42:00,
2013-01-16 22:52:00,31.0,9.0,-100.00,ENE,71,4.0,14.0,39,-99.99,,,-99.99,,2013-01-17 06:52:00,
2013-01-16 23:02:00,32.0,9.0,-100.00,ENE,61,4.0,13.0,37,-99.99,,,-99.99,,2013-01-17 07:02:00,
2013-01-16 23:12:00,32.0,9.0,-100.00,ENE,65,4.0,12.0,38,-99.99,,,-99.99,,2013-01-17 07:12:00,
2013-01-16 23:22:00,33.0,9.0,-100.00,NE,47,5.0,13.0,36,-99.99,,,-99.99,,2013-01-17 07:22:00,
2013-01-16 23:32:00,34.0,10.0,-100.00,NE,51,6.0,18.0,36,-99.99,,,-99.99,,2013-01-17 07:32:00,
2013-01-16 23:42:00,33.0,8.0,-100.00,NE,52,6.0,17.0,35,-99.99,,,-99.99,,2013-01-17 07:42:00,
2013-01-16 23:52:00,34.0,8.0,-100.00,NE,47,6.0,16.0,34,-99.99,,,-99.99,,2013-01-17 07:52:00,